Location: Goettingen
(51.5300°N, 9.9433°E)
Time: 12:35:47
(UTC+02:00)

ISS - Pass Details

Date: 20 September 2020
Orbit: 419 x 420 km, 51.6° (Epoch: 18 September)

Event Time Altitude Azimuth Distance (km) Brightness Sun altitude
Rises 20:03:23 0° 214° (SW) 2,356 0.4 -7.2°
Reaches altitude 10° 20:05:44 10° 199° (SSW) 1,496 -0.8 -7.5°
Maximum altitude 20:08:27 23° 146° (SE) 952 -2.3 -8.0°
Enters shadow 20:10:53 11° 95° (E) 1,417 -1.7 -8.3°
